Weather History for KPSM - November, 2013

Change the Weather History Date:

Tuesday, November 26, 2013

  Actual Average Record
Temperature  
Mean Temperature 32 °F -  
Max Temperature 35 °F 43 °F 62 °F (2001)
Min Temperature 28 °F 28 °F 11 °F (1993)
Degree Days  
Heating Degree Days 34    
Moisture  
Dew Point 22 °F    
Average Humidity 68    
Maximum Humidity 100    
Minimum Humidity 41    
Precipitation  
Precipitation 0.06 in - - ()
Sea Level Pressure  
Sea Level Pressure 30.26 in    
Wind  
Wind Speed 5 mph (WSW)    
Max Wind Speed 10 mph    
Max Gust Speed -    
Visibility 8 miles    
Events Rain , Snow    
Averages and records for this station are not official NWS values.
T = Trace of Precipitation, MM = Missing Value Source: NWS Daily Summary

Daily Weather History Graph

Daily Weather History Graph

Search for Another Location

Airport or City:

Trip Planner

Search our weather history database for the weather conditions in past years. The results will help you decide how hot, cold, wet, or windy it might be!

Date:

Astronomy

Nov. 26, 2013 Rise Set
Actual Time 6:49 AM EST 4:11 PM EST
Civil Twilight 6:18 AM EST 4:42 PM EST
Nautical Twilight 5:43 AM EST 5:18 PM EST
Astronomical Twilight 5:09 AM EST 5:52 PM EST
Moon No Moon Rise 12:26 PM EST (11/26)
Length of Visible Light 10h 24m
Length of Day
9h 21m
Last Quarter, 41% of the Moon is Illuminated
Nov 26
Last Quarter
Dec 2
New
Dec 9
First Quarter
Dec 17
Full
Dec 25
Last Quarter

Hourly Weather History & Observations

Time (EST) Temp. Windchill Dew Point Humidity Pressure Visibility Wind Dir Wind Speed Gust Speed Precip Events Conditions
12:58 AM 29.7 °F 24.7 °F 9.9 °F 44% 30.26 in 10.0 mi SSW 4.6 mph - N/A   Overcast
1:58 AM 30.4 °F 24.5 °F 11.1 °F 45% 30.25 in 10.0 mi SSW 5.8 mph - N/A   Overcast
2:58 AM 30.7 °F 24.9 °F 11.8 °F 46% 30.26 in 10.0 mi SW 5.8 mph - N/A   Overcast
3:58 AM 31.3 °F 24.7 °F 12.0 °F 45% 30.26 in 10.0 mi SW 6.9 mph - N/A   Overcast
4:58 AM 31.8 °F 26.2 °F 11.7 °F 43% 30.26 in 10.0 mi SW 5.8 mph - N/A   Overcast
5:43 AM 32.0 °F 26.4 °F 12.2 °F 44% 30.26 in 10.0 mi SW 5.8 mph - N/A   Overcast
5:48 AM 32.0 °F 26.4 °F 10.4 °F 41% 30.25 in 5.0 mi SW 5.8 mph - N/A Snow Light Snow
5:58 AM 32.2 °F 25.8 °F 12.4 °F 44% 30.27 in 8.0 mi SW 6.9 mph - 0.00 in Snow Light Snow
6:13 AM 32.0 °F 25.6 °F 12.2 °F 44% 30.26 in 10.0 mi SW 6.9 mph - N/A Snow Light Snow
6:45 AM 32.0 °F 27.5 °F 12.2 °F 44% 30.26 in 10.0 mi SW 4.6 mph - N/A   Overcast
6:58 AM 32.2 °F 26.7 °F 12.2 °F 44% 30.29 in 10.0 mi WSW 5.8 mph - 0.00 in   Overcast
7:06 AM 32.0 °F 26.4 °F 12.2 °F 44% 30.28 in 8.0 mi WSW 5.8 mph - N/A Snow Light Snow
7:58 AM 29.8 °F 20.9 °F 21.0 °F 70% 30.32 in 2.0 mi SW 10.4 mph - 0.00 in Snow Light Snow
8:43 AM 28.4 °F 19.1 °F 26.6 °F 93% 30.31 in 4.0 mi SW 10.4 mph - N/A Snow Light Snow
8:58 AM 29.1 °F 22.1 °F 26.2 °F 89% 30.33 in 10.0 mi SW 6.9 mph - 0.00 in   Overcast
9:58 AM 30.7 °F 22.6 °F 25.0 °F 79% 30.33 in 10.0 mi SW 9.2 mph - N/A   Overcast
10:58 AM 32.4 °F 24.6 °F 25.2 °F 75% 30.31 in 10.0 mi SW 9.2 mph - N/A   Overcast
11:58 AM 34.2 °F 29.0 °F 25.0 °F 69% 30.29 in 10.0 mi West 5.8 mph - N/A   Overcast
12:28 PM 35.6 °F 29.9 °F 24.8 °F 65% 30.27 in 10.0 mi WSW 6.9 mph - N/A   Overcast
12:58 PM 35.4 °F 31.5 °F 24.6 °F 65% 30.29 in 10.0 mi WSW 4.6 mph - N/A   Overcast
1:58 PM 35.6 °F 32.8 °F 24.6 °F 64% 30.28 in 10.0 mi SW 3.5 mph - N/A   Overcast
2:58 PM 35.2 °F 32.4 °F 24.3 °F 64% 30.29 in 10.0 mi SW 3.5 mph - N/A   Overcast
3:58 PM 34.9 °F - 23.9 °F 64% 30.29 in 10.0 mi NW 1.2 mph - N/A   Overcast
4:58 PM 34.7 °F - 24.1 °F 65% 30.30 in 10.0 mi ENE 1.2 mph - N/A   Overcast
5:58 PM 34.0 °F - 24.1 °F 67% 30.28 in 10.0 mi ENE 2.3 mph - N/A   Overcast
6:44 PM 35.6 °F - 23.0 °F 60% 30.26 in 10.0 mi Calm Calm - N/A Snow Light Snow
6:58 PM 34.5 °F - 23.9 °F 65% 30.27 in 7.0 mi Calm Calm - 0.00 in Snow Light Snow
7:58 PM 33.6 °F 30.6 °F 29.8 °F 86% 30.26 in 5.0 mi NNE 3.5 mph - 0.00 in Rain Light Rain
8:58 PM 32.7 °F - 32.5 °F 99% 30.23 in 5.0 mi NNE 2.3 mph - 0.01 in Rain Light Rain
9:16 PM 32.0 °F - 32.0 °F 100% 30.20 in 5.0 mi Calm Calm - N/A Rain Light Rain
9:58 PM 33.3 °F - 33.1 °F 99% 30.19 in 5.0 mi North 2.3 mph - 0.01 in Rain Light Rain
10:43 PM 32.0 °F - 32.0 °F 100% 30.14 in 4.0 mi North 1.2 mph - N/A Rain Light Rain
10:58 PM 33.8 °F - 33.6 °F 99% 30.15 in 2.5 mi Calm Calm - 0.01 in Rain Light Rain
11:21 PM 33.8 °F 28.6 °F 33.8 °F 100% 30.11 in 2.5 mi NNE 5.8 mph - N/A Rain Light Rain
11:58 PM 34.7 °F 30.6 °F 34.7 °F 100% 30.09 in 1.5 mi NNE 4.6 mph - 0.03 in Rain Light Rain